BEIDOU 13

Last updated on May 15, 2019, 3:07 a.m. UTC

1 38251U 12018B   19134.50932775 -.00000100  00000-0  10000-3 0  9993
2 38251  56.5471  30.3119 0025365 234.7364 267.0979  1.86233562 48048
UTC
Height (km)
Latitude
Longitude
Inclination
Orbital Period
UTC large
Height (km)
Speed (km/s)
/
Latitude / Longitude
Inclination (degrees)
Orbital Period (minutes)
Azimuth
Elevation
Range (km)
Doppler Factor
iOS Compass Heading
iOS Angle

Next 30 passes for location: Hong Kong

Rise time Rise Azimuth (degrees) Set time Set Azimuth (degrees) Duration Max altitude (degrees)

No matching passes for this satellites